This demonstration page uses our WeatherBlox Daily Observations layout. Learn more.

Left ArrowRight Arrow

40.92501, -98.34201

Hourly Observations for November 29, 2022

Temp ( °F °C ) Dew Point ( °F °C ) Humidity (%) Winds ( mph kmh ) Pressure ( in mb ) Visibility ( mi km ) Precip ( " mm )
12:53 am 00:53 Cloudy 38 3.3 23 -5 54 54 NNE 25 41 29.61 1003 10 16 0.00 0.00
1:53 am 01:53 Cloudy 36 2.2 22 -5.6 56 56 NNE 28 44 29.60 1002 10 16 0.00 0.00
2:53 am 02:53 Cloudy 34 1.1 22 -5.6 61 61 NNE 26 43 29.61 1003 10 16 0.00 0.00
3:19 am 03:19 Cloudy 33 0.6 23 -5 66 66 NNE 32 52 29.65 1004 10 16 0.00 0.00
3:53 am 03:53 Cloudy 32 0 24 -4.4 72 72 NNE 30 48 29.59 1002 10 16 0.00 0.00
4:34 am 04:34 Cloudy 30 -1.1 24 -4.4 78 78 NNE 25 41 29.66 1004 10 16 0.00 0.00
4:53 am 04:53 Cloudy 30 -1.1 24 -4.4 78 78 NNE 24 39 29.62 1003 10 16 0.00 0.00
5:53 am 05:53 Cloudy 30 -1.1 24 -4.4 78 78 N 25 41 29.64 1004 10 16 0.00 0.00
6:15 am 06:15 Cloudy 30 -1.1 23 -5 75 75 N 26 43 29.70 1006 10 16 0.00 0.00
6:53 am 06:53 Windy with Snow Likely 29 -1.7 22 -5.6 75 75 N 29 46 29.70 1006 7 11 0.01 0.13
7:35 am 07:35 Windy with Snow Likely 28 -2.2 24 -4.4 85 85 N 26 43 29.78 1008 3 5 0.01 0.13
7:53 am 07:53 Windy with Snow Likely 26 -3.3 22 -5.6 84 84 N 30 48 29.75 1007 4 6 0.01 0.13
8:18 am 08:18 Windy with Snow Likely 25 -3.9 21 -6.1 85 85 N 23 37 29.82 1010 2 3 0.01 0.13
8:42 am 08:42 Windy with Snow Likely 24 -4.4 20 -6.7 84 84 N 26 43 29.81 1009 3 5 0.01 0.25
8:53 am 08:53 Windy with Snow Likely 24 -4.4 20 -6.7 84 84 N 25 41 29.77 1008 5 8 0.01 0.25
9:53 am 09:53 Windy with Snow Likely 24 -4.4 19 -7.2 81 81 N 22 35 29.81 1009 8 13 0.01 0.13
10:04 am 10:04 Windy with Snow Likely 24 -4.4 19 -7.2 81 81 N 20 31 29.86 1011 7 11 0.01 0.13
10:30 am 10:30 Windy with Snow Likely 23 -5 17 -8.3 78 78 N 23 37 29.88 1012 2 3 0.01 0.13
10:53 am 10:53 Windy with Snow Likely 23 -5 19 -7.2 84 84 NNW 21 33 29.83 1010 1 1 0.01 0.13
11:10 am 11:10 Windy with Snow Likely 23 -5 19 -7.2 84 84 N 20 31 29.90 1012 2 3 0.01 0.25
11:17 am 11:17 Windy with Snow Likely 23 -5 18 -7.8 81 81 NNW 24 39 29.90 1012 2 3 0.01 0.25
11:24 am 11:24 Windy with Snow Likely 23 -5 18 -7.8 81 81 NNW 28 44 29.90 1012 2 2 0.01 0.25
11:53 am 11:53 Cloudy with Light Snow 23 -5 18 -7.8 81 81 NNW 18 30 29.86 1011 2 3 0.01 0.25
12:02 pm 12:02 Windy with Snow Likely 24 -4.4 18 -7.8 77 77 NNW 22 35 29.92 1013 3 4 0.01 0.13
12:13 pm 12:13 Windy with Snow Likely 24 -4.4 17 -8.3 74 74 NNW 29 46 29.93 1013 3 5 0.01 0.13
12:20 pm 12:20 Windy with Snow Likely 24 -4.4 18 -7.8 77 77 NNW 21 33 29.92 1013 3 4 0.01 0.13
12:38 pm 12:38 Cloudy with Light Snow 24 -4.4 17 -8.3 74 74 NNW 18 30 29.93 1013 4 6 0.01 0.13
12:53 pm 12:53 Cloudy 25 -3.9 16 -8.9 68 68 NNW 18 30 29.87 1012 10 16 0.01 0.13
1:55 pm 13:55 Mostly Cloudy 26 -3.3 16 -8.9 65 65 NNW 18 30 29.94 1014 10 16 0.00 0.00
2:53 pm 14:53 Mostly Cloudy 26 -3.3 14 -10 60 60 NNW 18 30 29.93 1014 10 16 0.00 0.00
3:53 pm 15:53 Partly Cloudy 27 -2.8 13 -10.6 55 55 NW 23 37 29.98 1015 10 16 0.00 0.00
4:53 pm 16:53 Partly Cloudy 24 -4.4 11 -11.7 57 57 NW 16 26 30.03 1017 10 16 0.00 0.00
5:53 pm 17:53 Clear 22 -5.6 11 -11.7 62 62 NW 12 19 30.07 1018 10 16 0.00 0.00
6:53 pm 18:53 Mostly Cloudy 21 -6.1 11 -11.7 64 64 WNW 8 13 30.11 1020 10 16 0.00 0.00
7:53 pm 19:53 Clear 20 -6.7 10 -12.2 65 65 W 14 22 30.14 1021 10 16 0.00 0.00
8:53 pm 20:53 Clear 19 -7.2 9 -12.8 64 64 WNW 14 22 30.17 1022 10 16 0.00 0.00
9:53 pm 21:53 Clear 17 -8.3 8 -13.3 67 67 W 13 20 30.20 1023 10 16 0.00 0.00
10:53 pm 22:53 Clear 15 -9.4 7 -13.9 70 70 W 10 17 30.23 1024 10 16 0.00 0.00
11:53 pm 23:53 Clear 14 -10 6 -14.4 70 70 W 12 19 30.24 1024 10 16 0.00 0.00

Powered by AerisWeather